Regional Weather Roundup
Issued by NWS

Home | Current Version | Previous Version | Text Only | Print | Product List | Glossary Off
Versions: 1 2 3 4 5 6 7 8 9 10 11 12 13 14 15 16 17 18 19 20 21 22 23 24 25 26 27 28 29 30 31 32 33 34 35 36 37 38 39 40 41 42 43 44 45 46 47 48 49 50

000
ASUS44 KMEG 171600
RWRTN
TENNESSEE HOURLY STATE WEATHER ROUNDUP
NATIONAL WEATHER SERVICE MEMPHIS TN
1100 AM CDT TUE OCT 17 2017

TNZ002-004-019-021-049-052-054-088>092-171700-
WEST TENNESSEE

CITY           SKY/WX    TMP DP  RH WIND       PRES   REMARKS
MEMPHIS INTL   MOSUNNY   63  42  46 E7        30.35S
NWS MEMPHIS      N/A     61 N/A N/A MISG        N/A
JACKSON        SUNNY     62  45  53 VRB3      30.36F
$$

TNZ008-025-027-028-033-062-065-066-171700-
NORTH MIDDLE TENNESSEE

CITY           SKY/WX    TMP DP  RH WIND       PRES   REMARKS
NASHVILLE      MOSUNNY   62  41  46 VRB7      30.39F
CLARKSVILLE    SUNNY     61  41  47 E9        30.37F
CROSSVILLE     SUNNY     56  39  53 VRB5      30.38S
$$

TNZ061-075-076-078-094-096-097-171700-
SOUTH MIDDLE TENNESSEE

CITY           SKY/WX    TMP DP  RH WIND       PRES   REMARKS
TULLAHOMA      SUNNY     61  39  44 VRB5      30.37F
WINCHESTER     SUNNY     61  41  48 SE6       30.37S
$$

TNZ017-018-042-046-047-171700-
NORTHEAST TENNESSEE

CITY           SKY/WX    TMP DP  RH WIND       PRES   REMARKS
TRI CITIES     SUNNY     57  42  57 VRB3      30.38F
$$

TNZ012-013-036-069-073-074-171700-
CENTRAL EAST TENNESSEE

CITY           SKY/WX    TMP DP  RH WIND       PRES   REMARKS
KNOXVILLE      SUNNY     58  45  62 N10       30.38S
$$

TNZ083-085-099-171700-
SOUTHEAST TENNESSEE

CITY           SKY/WX    TMP DP  RH WIND       PRES   REMARKS
CHATTANOOGA    SUNNY     62  43  49 N7        30.37F
$$

SKY/WX REPORTED AS FAIR MEANS FEW OR NO CLOUDS BELOW
12 THOUSAND FEET.





USA.gov is the U.S. government's official web portal to all federal, state and local government web resources and services.